OISY  Yasouj  Airport

Iran

Add Bookmark
ICAO OISY
Type Airport
Status Operational
Latitude
30° 42' 1" N
30.700500
Longitude
51° 32' 42" E
51.545101
Local (DST + 5) UTC (GMT + 4)
Sep 5, 2015 03:38 Sep 4, 2015 23:08
Sunrise-Sunset Local UTC
Begin Civil Twilight 06:16 01:46
Sunrise 06:41 02:11
Sunset 07:23 14:53
End Civil Twilight 07:48 15:18
VFR
VFR
MVFR
MVFR
IFR
IFR
LIFR
LIFR
Unknown
Unavailable

Current Weather

METAR Observed VFR
OISY 042200Z 00000KT CAVOK 19/10 Q1022 Fri, Sep 4, 2015 @ 22:00 UTC
(1 Hour, 8 Minutes ago)
Visual Flight Rules
Wind Visibility Conditions
Calm 10 km or more
  • No significant weather
Temperatures Readings Precipitation
Current Temp
19°C
66°F
Dewpoint
10°C
50°F
Humidity 56%
Altimeter 30.18" Hg
Sea Level Pressure 1,022 mb
Field Elevation
1,811 m
5,942 ft
None Recorded

Additional weather within a 92.6km radius of OISY

Map ICAO Location
OIAH 79.6km W/SW (240°)
VFR
VFR
MVFR
MVFR
IFR
IFR
LIFR
LIFR
Unknown
Unavailable
-
-

CheckWX.com is intended as a tool to help pilots better visualize weather data. It is not intended as a substitute for an official weather briefing obtained from a Flight Service Station. CheckWX.com does not meet the FAA requirements for an official pre-flight weather briefing. Therefore, it's important that pilots still call and obtain an official FSS pre-flight weather briefing.

© 2007-2015 CheckWX.com
23:08:56 UTC